• In Lithuania
  • List of Countries
  • For 7 days
  • Water Temperature
  • Satellite Maps
  • Weather Map
  • Weather Widgets
  • user-avatar
    Login

    Hourly Weather Mahin

    Today, 25 April, Wednesday

    Time Temperature Precipitation Wind Pressure Humidity
    00:00 +12°C° 0.1 mm 4 mps 761 mmHg 68%
    01:00 +12°C° 0.3 mm 4 mps 761 mmHg 71%
    02:00 +12°C° 0.3 mm 4 mps 761 mmHg 74%
    03:00 +11°C° 0 mm 3 mps 760 mmHg 78%
    04:00 +11°C° 0 mm 4 mps 760 mmHg 76%
    05:00 +11°C° 0 mm 4 mps 760 mmHg 74%
    06:00 +10°C° 0 mm 5 mps 760 mmHg 72%
    07:00 +11°C° 0 mm 6 mps 760 mmHg 69%
    08:00 +14°C° 0 mm 6 mps 760 mmHg 66%
    09:00 +15°C° 0 mm 7 mps 760 mmHg 64%
    10:00 +17°C° 0 mm 7 mps 760 mmHg 63%
    11:00 +18°C° 0 mm 7 mps 760 mmHg 61%
    12:00 +20°C° 0 mm 7 mps 760 mmHg 59%
    13:00 +20°C° 0 mm 7 mps 760 mmHg 59%
    14:00 +21°C° 0 mm 6 mps 760 mmHg 58%
    15:00 +21°C° 0 mm 6 mps 760 mmHg 58%
    16:00 +21°C° 0 mm 6 mps 760 mmHg 61%
    17:00 +20°C° 0 mm 6 mps 760 mmHg 64%
    18:00 +19°C° 0 mm 5 mps 760 mmHg 67%
    19:00 +17°C° 0 mm 5 mps 760 mmHg 71%
    20:00 +15°C° 0 mm 4 mps 760 mmHg 75%
    21:00 +14°C° 0 mm 4 mps 761 mmHg 79%
    22:00 +13°C° 0 mm 4 mps 761 mmHg 80%
    23:00 +13°C° 0 mm 3 mps 761 mmHg 80%

    Tomorrow, 26 April, Thursday

    Time Temperature Precipitation Wind Pressure Humidity
    00:00 +12°C° 0 mm 3 mps 761 mmHg 80%
    01:00 +12°C° 0 mm 3 mps 761 mmHg 81%
    02:00 +12°C° 0 mm 3 mps 761 mmHg 83%
    03:00 +11°C° 0 mm 3 mps 761 mmHg 84%
    04:00 +11°C° 0 mm 3 mps 761 mmHg 84%
    05:00 +11°C° 0 mm 3 mps 761 mmHg 85%
    06:00 +11°C° 0 mm 3 mps 761 mmHg 86%
    07:00 +13°C° 0 mm 4 mps 761 mmHg 80%
    08:00 +15°C° 0 mm 4 mps 761 mmHg 74%
    09:00 +18°C° 0 mm 4 mps 761 mmHg 68%
    10:00 +20°C° 0 mm 5 mps 761 mmHg 63%
    11:00 +21°C° 0 mm 5 mps 761 mmHg 58%
    12:00 +23°C° 0 mm 6 mps 761 mmHg 53%
    13:00 +23°C° 0 mm 6 mps 761 mmHg 52%
    14:00 +24°C° 0 mm 6 mps 760 mmHg 52%
    15:00 +24°C° 0 mm 6 mps 760 mmHg 51%
    16:00 +23°C° 0 mm 6 mps 760 mmHg 54%
    17:00 +22°C° 0 mm 5 mps 760 mmHg 58%
    18:00 +22°C° 0 mm 4 mps 760 mmHg 61%
    19:00 +20°C° 0 mm 4 mps 760 mmHg 65%
    20:00 +18°C° 0 mm 3 mps 760 mmHg 70%
    21:00 +16°C° 0 mm 3 mps 761 mmHg 74%
    22:00 +16°C° 0 mm 3 mps 761 mmHg 74%
    23:00 +15°C° 0 mm 2 mps 761 mmHg 74%

    Day after tomorrow, 27 April, Friday

    Time Temperature Precipitation Wind Pressure Humidity
    00:00 +15°C° 0 mm 2 mps 761 mmHg 74%
    01:00 +15°C° 0 mm 2 mps 761 mmHg 74%
    02:00 +14°C° 0 mm 1 mps 761 mmHg 74%
    03:00 +14°C° 0 mm 1 mps 761 mmHg 75%
    04:00 +14°C° 0 mm 1 mps 760 mmHg 75%
    05:00 +14°C° 0 mm 1 mps 760 mmHg 76%
    06:00 +14°C° 0 mm 1 mps 760 mmHg 76%
    07:00 +16°C° 0 mm 1 mps 760 mmHg 70%
    08:00 +19°C° 0 mm 2 mps 760 mmHg 64%
    09:00 +21°C° 0 mm 2 mps 760 mmHg 58%
    10:00 +23°C° 0 mm 2 mps 760 mmHg 54%
    11:00 +25°C° 0 mm 2 mps 759 mmHg 50%
    12:00 +26°C° 0 mm 3 mps 759 mmHg 46%
    13:00 +27°C° 0 mm 3 mps 759 mmHg 44%
    14:00 +28°C° 0 mm 3 mps 758 mmHg 43%
    15:00 +28°C° 0 mm 3 mps 758 mmHg 42%
    16:00 +27°C° 0 mm 3 mps 758 mmHg 45%
    17:00 +26°C° 0 mm 3 mps 758 mmHg 48%
    18:00 +26°C° 0 mm 3 mps 757 mmHg 52%
    19:00 +24°C° 0.1 mm 3 mps 758 mmHg 54%
    20:00 +21°C° 0.1 mm 3 mps 758 mmHg 57%
    21:00 +19°C° 0.1 mm 3 mps 759 mmHg 60%
    22:00 +18°C° 0 mm 4 mps 759 mmHg 64%
    23:00 +17°C° 0 mm 4 mps 759 mmHg 68%

    28 April, Saturday

    Time Temperature Precipitation Wind Pressure Humidity
    00:00 +15°C° 0 mm 5 mps 760 mmHg 72%
    01:00 +14°C° 0 mm 5 mps 760 mmHg 72%
    02:00 +13°C° 0 mm 5 mps 761 mmHg 73%
    03:00 +12°C° 0 mm 5 mps 761 mmHg 74%
    04:00 +12°C° 0 mm 4 mps 762 mmHg 75%
    05:00 +11°C° 0 mm 4 mps 762 mmHg 77%
    06:00 +11°C° 0 mm 3 mps 763 mmHg 78%
    07:00 +12°C° 0 mm 3 mps 764 mmHg 72%
    08:00 +14°C° 0 mm 3 mps 764 mmHg 66%
    09:00 +17°C° 0 mm 3 mps 765 mmHg 60%
    10:00 +18°C° 0 mm 3 mps 765 mmHg 53%
    11:00 +19°C° 0 mm 4 mps 765 mmHg 47%
    12:00 +21°C° 0 mm 4 mps 765 mmHg 40%
    13:00 +21°C° 0 mm 4 mps 765 mmHg 38%
    14:00 +22°C° 0 mm 4 mps 765 mmHg 37%
    15:00 +22°C° 0 mm 4 mps 765 mmHg 35%
    16:00 +21°C° 0 mm 3 mps 765 mmHg 39%
    17:00 +21°C° 0 mm 3 mps 765 mmHg 42%
    18:00 +20°C° 0 mm 3 mps 766 mmHg 46%
    19:00 +19°C° 0 mm 2 mps 766 mmHg 49%
    20:00 +17°C° 0 mm 2 mps 767 mmHg 51%
    21:00 +16°C° 0 mm 2 mps 767 mmHg 54%
    22:00 +15°C° 0 mm 2 mps 767 mmHg 56%
    23:00 +14°C° 0 mm 2 mps 767 mmHg 57%

    29 April, Sunday

    Time Temperature Precipitation Wind Pressure Humidity
    00:00 +14°C° 0 mm 2 mps 767 mmHg 59%
    01:00 +13°C° 0 mm 2 mps 768 mmHg 61%
    02:00 +13°C° 0 mm 2 mps 768 mmHg 62%
    03:00 +13°C° 0 mm 2 mps 768 mmHg 64%
    04:00 +12°C° 0 mm 2 mps 768 mmHg 66%
    05:00 +12°C° 0 mm 2 mps 768 mmHg 68%
    06:00 +12°C° 0 mm 2 mps 768 mmHg 70%
    07:00 +13°C° 0 mm 3 mps 768 mmHg 64%
    08:00 +16°C° 0 mm 3 mps 768 mmHg 58%
    09:00 +18°C° 0 mm 4 mps 768 mmHg 52%
    10:00 +20°C° 0 mm 4 mps 768 mmHg 48%
    11:00 +21°C° 0 mm 4 mps 768 mmHg 44%
    12:00 +22°C° 0 mm 4 mps 768 mmHg 40%
    13:00 +22°C° 0 mm 3 mps 767 mmHg 39%
    14:00 +24°C° 0 mm 3 mps 767 mmHg 37%
    15:00 +24°C° 0 mm 3 mps 767 mmHg 36%
    16:00 +24°C° 0 mm 3 mps 766 mmHg 40%
    17:00 +24°C° 0 mm 3 mps 766 mmHg 43%
    18:00 +23°C° 0 mm 2 mps 766 mmHg 47%
    19:00 +20°C° 0 mm 2 mps 766 mmHg 49%
    20:00 +19°C° 0 mm 2 mps 766 mmHg 52%
    21:00 +17°C° 0 mm 2 mps 766 mmHg 54%
    22:00 +16°C° 0 mm 3 mps 766 mmHg 56%
    23:00 +16°C° 0 mm 3 mps 766 mmHg 58%

    30 April, Monday

    Time Temperature Precipitation Wind Pressure Humidity
    00:00 +14°C° 0 mm 3 mps 766 mmHg 59%
    01:00 +14°C° 0 mm 3 mps 766 mmHg 60%
    02:00 +13°C° 0 mm 3 mps 766 mmHg 60%
    03:00 +13°C° 0 mm 3 mps 766 mmHg 61%
    04:00 +12°C° 0 mm 3 mps 766 mmHg 62%
    05:00 +12°C° 0 mm 3 mps 766 mmHg 63%
    06:00 +12°C° 0 mm 3 mps 766 mmHg 64%
    07:00 +14°C° 0 mm 3 mps 765 mmHg 58%
    08:00 +18°C° 0 mm 4 mps 765 mmHg 52%
    09:00 +20°C° 0 mm 4 mps 765 mmHg 46%
    10:00 +21°C° 0 mm 4 mps 765 mmHg 42%
    11:00 +23°C° 0 mm 5 mps 765 mmHg 39%
    12:00 +25°C° 0 mm 5 mps 764 mmHg 36%
    13:00 +25°C° 0 mm 5 mps 764 mmHg 36%
    14:00 +26°C° 0 mm 5 mps 764 mmHg 36%
    15:00 +26°C° 0 mm 5 mps 763 mmHg 35%
    16:00 +26°C° 0 mm 4 mps 763 mmHg 39%
    17:00 +25°C° 0 mm 4 mps 763 mmHg 43%
    18:00 +24°C° 0 mm 3 mps 763 mmHg 47%
    19:00 +22°C° 0 mm 3 mps 763 mmHg 50%
    20:00 +20°C° 0 mm 3 mps 763 mmHg 52%
    21:00 +18°C° 0 mm 3 mps 763 mmHg 54%
    22:00 +17°C° 0 mm 3 mps 763 mmHg 55%
    23:00 +17°C° 0 mm 3 mps 763 mmHg 56%
    Show more